User: anonymous   Login
Location: Unspecified
(0.0000°N, 0.0000°E)
Time: 03:36:13
(UTC+00:00)
Language:

COSMOS 2409 - Orbit

View from above orbital plane
View from above orbital plane
View from above satellite
View from above satellite

Ground track
Ground track

The orbit data is extracted from the following two-line orbital elements,

1 28380U 04028A   17177.59046639 +.00000034 +00000-0 +19354-4 0  9993
2 28380 082.9595 341.3618 0040508 058.0938 302.4149 13.76041568649291
Epoch (UTC): 26 June 2017 14:10:16
Eccentricity: 0.0040508
inclination: 82.9595°
perigee height: 948 km
apogee height: 1008 km
right ascension of ascending node: 341.3618°
argument of perigee: 58.0938°
revolutions per day: 13.76041568
mean anomaly at epoch: 302.4149°
orbit number at epoch: 64929

The dashed part of the orbit path shows where the satellite is in the earth's shadow,  

DLR